Location: Newark
(50.0306°N, 2.3272°E)
Time: 03:05:42
(UTC+00:00)

Vanguard 1 Rocket - Pass Details

Date: 12 December 2019
Orbit: 650 x 4226 km, 34.3° (Epoch: 25 January)

Event Time Altitude Azimuth Distance (km) Brightness Sun altitude
Rises 16:25:38 0° 177° (S) 8,419 12.7 -5.8°
Reaches altitude 10° 16:41:08 10° 145° (SE) 6,752 11.7 -8.0°
Maximum altitude 16:43:38 10° 138° (SE) 6,554 11.6 -8.4°
Drops below altitude 10° 16:46:00 10° 131° (SE) 6,400 11.5 -8.7°
Enters shadow 16:56:49 - 99° (E) 6,312 11.2 -10.3°
Sets 16:57:16 0° 98° (E) 6,335 - -10.4°
